| time (UTC) | temp C | wind direction | speed KPH | gust KPH | rain 1hr cm | rain 24hr cm | rain mn cm | humidity % | barometer mb |
| 20260504081500 | 16 | 215 | 3.2 | 6.4 | 0.00 | 0.00 | 0.00 | 68 | 1015.5 |
| 20260504080458 | 16 | 217 | 3.2 | 6.4 | 0.00 | 0.00 | 0.00 | 68 | 1015.6 |
| 20260504050422 | 10 | 226 | 3.2 | 6.4 | 0.00 | 0.00 | 0.00 | 77 | 1015.4 |
| 20260504045440 | 10 | 227 | 1.6 | 4.8 | 0.00 | 0.00 | 0.00 | 77 | 1015.4 |
| 20260504044418 | 10 | 191 | 1.6 | 3.2 | 0.00 | 0.00 | 0.00 | 77 | 1015.4 |
| 20260504043416 | 10 | 240 | 3.2 | 6.4 | 0.00 | 0.00 | 0.00 | 77 | 1015.4 |
| 20260504042414 | 10 | 242 | 3.2 | 4.8 | 0.00 | 0.00 | 0.00 | 75 | 1015.4 |
| 20260504041412 | 10 | 238 | 3.2 | 4.8 | 0.00 | 0.00 | 0.00 | 74 | 1015.4 |
| 20260504040411 | 11 | 230 | 3.2 | 6.4 | 0.00 | 0.00 | 0.00 | 74 | 1015.3 |
| 20260504035408 | 11 | 231 | 1.6 | 3.2 | 0.00 | 0.00 | 0.00 | 74 | 1015.4 |
| 20260504034406 | 11 | 270 | 3.2 | 6.4 | 0.00 | 0.00 | 0.00 | 73 | 1015.5 |
| 20260504033425 | 11 | 225 | 1.6 | 4.8 | 0.00 | 0.00 | 0.00 | 72 | 1015.5 |
| 20260504032402 | 11 | 225 | 1.6 | 4.8 | 0.00 | 0.00 | 0.00 | 71 | 1015.6 |
| 20260504031359 | 11 | 270 | 3.2 | 6.4 | 0.00 | 0.00 | 0.00 | 68 | 1015.6 |
| 20260504030358 | 11 | 180 | 1.6 | 3.2 | 0.00 | 0.00 | 0.00 | 67 | 1015.6 |
| 20260504025356 | 11 | 243 | 3.2 | 4.8 | 0.00 | 0.00 | 0.00 | 69 | 1015.7 |
| 20260504024354 | 12 | 238 | 3.2 | 6.4 | 0.00 | 0.00 | 0.00 | 67 | 1015.8 |
| 20260504023352 | 12 | 248 | 3.2 | 4.8 | 0.00 | 0.00 | 0.00 | 66 | 1015.8 |
| 20260504022350 | 12 | 247 | 3.2 | 6.4 | 0.00 | 0.00 | 0.00 | 65 | 1015.9 |
| 20260504021349 | 12 | 230 | 3.2 | 6.4 | 0.00 | 0.00 | 0.00 | 65 | 1015.9 |
| 20260504020346 | 12 | 229 | 3.2 | 6.4 | 0.00 | 0.00 | 0.00 | 64 | 1016.0 |
| 20260504015344 | 12 | 239 | 3.2 | 6.4 | 0.00 | 0.00 | 0.00 | 63 | 1015.9 |
| 20260504014341 | 13 | 226 | 3.2 | 6.4 | 0.00 | 0.00 | 0.00 | 63 | 1015.9 |
| 20260504013341 | 13 | 244 | 3.2 | 6.4 | 0.00 | 0.00 | 0.00 | 62 | 1015.9 |
| 20260504012439 | 13 | 231 | 3.2 | 6.4 | 0.00 | 0.00 | 0.00 | 61 | 1016.0 |
| 20260504011336 | 13 | 240 | 3.2 | 6.4 | 0.00 | 0.00 | 0.00 | 59 | 1016.0 |
| 20260504010335 | 14 | 235 | 3.2 | 4.8 | 0.00 | 0.00 | 0.00 | 58 | 1016.2 |
| 20260504005332 | 14 | 226 | 3.2 | 6.4 | 0.00 | 0.00 | 0.00 | 57 | 1016.2 |
| 20260504004330 | 14 | 225 | 1.6 | 4.8 | 0.00 | 0.00 | 0.00 | 57 | 1016.0 |
| 20260504003328 | 15 | 207 | 1.6 | 4.8 | 0.00 | 0.00 | 0.00 | 56 | 1016.3 |
| 20260504002327 | 15 | 220 | 1.6 | 4.8 | 0.00 | 0.00 | 0.00 | 56 | 1016.3 |
| 20260504001324 | 15 | 188 | 1.6 | 3.2 | 0.00 | 0.00 | 0.00 | 56 | 1016.4 |
| 20260504000322 | 15 | 206 | 1.6 | 6.4 | 0.00 | 0.00 | 0.00 | 56 | 1016.5 |
| 20260503235320 | 15 | 203 | 3.2 | 6.4 | 0.00 | 0.00 | 0.00 | 56 | 1016.5 |
| 20260503234318 | 15 | 225 | 1.6 | 4.8 | 0.00 | 0.00 | 0.00 | 56 | 1016.5 |
| 20260503233336 | 15 | 226 | 3.2 | 6.4 | 0.00 | 0.00 | 0.00 | 55 | 1016.6 |
| 20260503232314 | 15 | 225 | 1.6 | 4.8 | 0.00 | 0.00 | 0.00 | 55 | 1016.6 |
| 20260503231312 | 15 | 211 | 1.6 | 4.8 | 0.00 | 0.00 | 0.00 | 55 | 1016.6 |
| 20260503230310 | 15 | 216 | 1.6 | 4.8 | 0.00 | 0.00 | 0.00 | 55 | 1016.6 |
| 20260503225308 | 15 | 198 | 1.6 | 6.4 | 0.00 | 0.00 | 0.00 | 55 | 1016.6 |
| 20260503224306 | 15 | 192 | 1.6 | 4.8 | 0.00 | 0.00 | 0.00 | 54 | 1016.6 |
| 20260503223304 | 15 | 214 | 3.2 | 8.0 | 0.00 | 0.00 | 0.00 | 53 | 1016.5 |
| 20260503222304 | 15 | 161 | 1.6 | 6.4 | 0.00 | 0.00 | 0.00 | 53 | 1016.4 |
| 20260503221300 | 15 | 220 | 3.2 | 6.4 | 0.00 | 0.00 | 0.00 | 52 | 1016.3 |
| 20260503220258 | 16 | 220 | 3.2 | 6.4 | 0.00 | 0.00 | 0.00 | 52 | 1016.2 |
| 20260503215256 | 16 | 220 | 3.2 | 8.0 | 0.00 | 0.00 | 0.00 | 52 | 1016.0 |
| 20260503214255 | 16 | 222 | 3.2 | 8.0 | 0.00 | 0.00 | 0.00 | 51 | 1016.0 |
| 20260503213252 | 16 | 221 | 3.2 | 9.7 | 0.00 | 0.00 | 0.00 | 50 | 1015.8 |
| 20260503212250 | 16 | 219 | 3.2 | 9.7 | 0.00 | 0.00 | 0.00 | 49 | 1015.7 |
| 20260503211308 | 16 | 231 | 3.2 | 9.7 | 0.00 | 0.00 | 0.00 | 48 | 1015.6 |
| 20260503210246 | 16 | 225 | 3.2 | 9.7 | 0.00 | 0.00 | 0.00 | 48 | 1015.5 |
| 20260503205244 | 16 | 221 | 4.8 | 9.7 | 0.00 | 0.00 | 0.00 | 47 | 1015.4 |
| 20260503204242 | 16 | 223 | 4.8 | 11.3 | 0.00 | 0.00 | 0.00 | 46 | 1015.3 |
| 20260503203240 | 16 | 225 | 3.2 | 6.4 | 0.00 | 0.00 | 0.00 | 45 | 1015.2 |
| 20260503202238 | 17 | 223 | 3.2 | 9.7 | 0.00 | 0.00 | 0.00 | 45 | 1015.2 |
| 20260503201237 | 17 | 220 | 3.2 | 9.7 | 0.00 | 0.00 | 0.00 | 44 | 1015.2 |
| 20260503200234 | 17 | 201 | 3.2 | 8.0 | 0.00 | 0.00 | 0.00 | 44 | 1015.0 |
| 20260503195312 | 18 | 222 | 6.4 | 11.3 | 0.00 | 0.00 | 0.00 | 42 | 1014.9 |
| 20260503194230 | 18 | 220 | 4.8 | 9.7 | 0.00 | 0.00 | 0.00 | 39 | 1014.7 |
| 20260503193229 | 18 | 220 | 3.2 | 8.0 | 0.00 | 0.00 | 0.00 | 38 | 1014.5 |
| 20260503192226 | 19 | 232 | 3.2 | 6.4 | 0.00 | 0.00 | 0.00 | 37 | 1014.4 |
| 20260503191224 | 19 | 216 | 3.2 | 6.4 | 0.00 | 0.00 | 0.00 | 36 | 1014.3 |
| 20260503190221 | 19 | 223 | 3.2 | 6.4 | 0.00 | 0.00 | 0.00 | 37 | 1014.2 |
| 20260503185240 | 20 | 214 | 3.2 | 6.4 | 0.00 | 0.00 | 0.00 | 36 | 1014.1 |
| 20260503184218 | 20 | 130 | 3.2 | 6.4 | 0.00 | 0.00 | 0.00 | 31 | 1014.0 |
| 20260503183216 | 21 | 150 | 3.2 | 6.4 | 0.00 | 0.00 | 0.00 | 28 | 1013.8 |
| 20260503182214 | 21 | 114 | 3.2 | 6.4 | 0.00 | 0.00 | 0.00 | 28 | 1013.7 |
| 20260503181213 | 21 | 210 | 3.2 | 8.0 | 0.00 | 0.00 | 0.00 | 28 | 1013.5 |
| 20260503180230 | 21 | 219 | 4.8 | 9.7 | 0.00 | 0.00 | 0.00 | 30 | 1013.4 |
| 20260503175208 | 21 | 198 | 4.8 | 11.3 | 0.00 | 0.00 | 0.00 | 29 | 1013.4 |
| 20260503174206 | 22 | 219 | 3.2 | 8.0 | 0.00 | 0.00 | 0.00 | 31 | 1013.4 |
| 20260503173224 | 22 | 216 | 3.2 | 8.0 | 0.00 | 0.00 | 0.00 | 33 | 1013.3 |
| 20260503172202 | 22 | 143 | 3.2 | 6.4 | 0.00 | 0.00 | 0.00 | 31 | 1013.3 |
| 20260503171200 | 22 | 137 | 3.2 | 8.0 | 0.00 | 0.00 | 0.00 | 32 | 1013.2 |
| 20260503170159 | 22 | 222 | 3.2 | 8.0 | 0.00 | 0.00 | 0.00 | 33 | 1013.2 |
| 20260503160147 | 23 | 310 | 1.6 | 6.4 | 0.00 | 0.00 | 0.00 | 30 | 1012.9 |
| 20260503150134 | 23 | 329 | 1.6 | 4.8 | 0.00 | 0.00 | 0.00 | 35 | 1012.9 |
| 20260503140122 | 23 | 309 | 3.2 | 6.4 | 0.00 | 0.00 | 0.00 | 33 | 1013.3 |